Regional Weather Roundup
Issued by NWS

Home | Current Version | Previous Version | Text Only | Print | Product List | Glossary On
Versions: 1 2 3 4 5 6 7 8 9 10 11 12 13 14 15 16 17 18 19 20 21 22 23 24 25 26 27 28 29
000
ASPQ40 PGUM 200212
RWRPQ
WEATHER ROUNDUP FOR THE MARIANAS AND MICRONESIA
NATIONAL WEATHER SERVICE TIYAN GU
1200 PM CHST MON FEB 20 2017

GUZ001>004-200300-
MARIANA ISLANDS-

CITY           SKY/WX    TMP DP  RH WIND       PRES   REMARKS
GUAM AIRPORT   MOSUNNY   84  70  61 NE18G26   29.95F
ANDERSEN AFB   MOSUNNY   81  70  69 E18       29.96F
ROTA AIRPORT   PTSUNNY   81  70  69 E18G25    29.96F
TINIAN AP      PTSUNNY   81  73  78 NE17      29.94F
SAIPAN AP      MOSUNNY   81  72  74 E18       29.95F

$$

PMZ161-200300-
REPUBLIC OF PALAU-

CITY           SKY/WX    TMP DP  RH WIND       PRES   REMARKS
KOROR AP       PTSUNNY   86  77  74 NE17G23   29.87F HX  97
KOROR WSO      PTSUNNY   88  77  70 SE6       29.88F HX 100

$$

PMZ171>174-200300-
FEDERATED STATES OF MICRONESIA-

CITY           SKY/WX    TMP DP  RH WIND       PRES   REMARKS
YAP AIRPORT    PTSUNNY   86  75  70 E13       29.86F HX  95
CHUUK AP       CLOUDY    88  82  84 NE10      29.85S HX 108
POHNPEI AP     CLOUDY    88  77  70 E15       29.84F HX 100
POHNPEI WSO    CLOUDY    86  75  70 NE6       29.88F HX  95
KOSRAE AP      CLOUDY    88  77  70 NE21      29.80F HX 100

$$

PMZ181-200300-
REPUBLIC OF THE MARSHALL ISLANDS-

CITY           SKY/WX    TMP DP  RH WIND       PRES   REMARKS
KWAJALEIN AP   SUNNY     88  72  58 E18       29.83F HX  94
MAJURO AP      PTSUNNY   86  75  70 NE20      29.80  HX  95
MAJURO WSO     CLOUDY    86  73  66 NE10      29.79F HX  93

$$





USA.gov is the U.S. government's official web portal to all federal, state and local government web resources and services.